Location: Newark
(35.2672°N, 80.7344°W)
Time: 14:38:09
(UTC+00:00)

A-11 Canister half - Pass Details

Date: 28 January 2020
Orbit: 1524 x 1684 km, 47.3° (Epoch: 28 February)

Event Time Altitude Azimuth Distance (km) Brightness Sun altitude
Rises 01:34:45 0° 290° (WNW) 4,699 12.5 -34.5°
Reaches altitude 10° 01:38:04 10° 298° (WNW) 3,731 11.7 -35.2°
Enters shadow 01:46:47 41° 6° (N) 2,158 9.6 -37.0°
